Weather in Shevchenkovo

Ukraine / Odesa District     45°33′18″N   29°19′58″E
temp.,
°C
wind,
m/s
gust,
m/s
humid.,
%
clouds,
%
prec.,
mm/h
press.,
hPa
HPBL,
m
28 october, thu
thu2800:00+8n33630 0.0 102739
03:00+8n33645 0.0 102738
06:00+7n347321 0.0 102744
09:00+8n247050 0.0 1028113
12:00+14nne33500 0.0 1028698
15:00+16n224291 0.0 10261166
18:00+13e0150100 0.0 102610
21:00+11s11593 0.0 102710
29 october, fri
fri2900:00+10wnw11625 0.0 102710
03:00+9nnw22665 0.0 102611
06:00+8n22695 0.0 102615
09:00+10nne23655 0.0 102792
12:00+16ene34491 0.0 1027694
15:00+17e555023 0.0 10261225
18:00+12e34785 0.0 102647
21:00+11e34890 0.0 102747
30 october, sat
sat3000:00+10e22880 0.0 102715
03:00+10ene22880 0.0 102717
06:00+9ne23910 0.0 102722
09:00+11ne25870 0.0 1028147
12:00+16e55560 0.1 10281192
15:00+15e66560 0.1 10271070
18:00+11e47790 0.0 1027164
21:00+10ene34900 0.0 102765
31 october, sun
sun3100:00+10ene34910 0.0 102662
03:00+9ene33910 0.0 102639
05:00+9ne34910 0.0 102553
08:00+10ene368837 0.0 1025182
11:00+14e336499 0.0 10251009
14:00+15ene435959 0.0 10231084
17:00+11ene36790 0.0 1023139
20:00+9ene34870 0.0 102352
31 october, sun
sun3123:00+8nne22910 0.0 102219
02:00+8nne22940 0.0 102120
05:00+7nne22940 0.0 102014
08:00+9ne12905 0.0 101960
11:00+14sse2262100 0.0 1019513
14:00+16s224998 0.0 1017988
17:00+13s3463100 0.0 101662
20:00+11s348727 0.0 101659